User: anonymous
Location: Columbia
(38.9520°N, 92.3340°W)
Time: 16:33:10
(UTC-05:00)
Language:

Iridium 52 - Orbit

View from above orbital plane
View from above orbital plane
View from above satellite
View from above satellite

Ground track
Ground track

The orbit data is extracted from the following two-line orbital elements,

1 25169U 98010A   14114.08053512  .00000298  00000-0  99383-4 0  5021
2 25169 086.3937 111.1199 0002276 102.4748 322.3884 14.34219440846939
Epoch (UTC): 24 April 2014 01:55:58
Eccentricity: 0.0002276
inclination: 86.3937°
perigee height: 776 km
apogee height: 779 km
right ascension of ascending node: 111.1199°
argument of perigee: 102.4748°
revolutions per day: 14.34219440
mean anomaly at epoch: 322.3884°
orbit number at epoch: 84693

The dashed part of the orbit path shows where the satellite is in the earth's shadow,  

DLR